Regional Weather Roundup
Issued by NWS

Home | Current Version | Previous Version | Text Only | Print | Product List | Glossary Off
Versions: 1 2 3 4 5 6 7 8 9 10 11 12 13 14 15 16 17 18 19 20 21 22 23 24 25 26 27

000
ASUS45 KSLC 261610
RWRUT

UTAH REGIONAL WEATHER ROUNDUP
NATIONAL WEATHER SERVICE SALT LAKE CITY UT
1000 AM MDT TUE SEP 26 2017

UTZ001>011-023>025-261700-

NORTHERN UTAH

CITY           SKY/WX    TMP DP  RH WIND       PRES   REMARKS
BRIGHAM CITY   SUNNY     51  36  58 CALM      30.19S
DUGWAY         MOSUNNY   46  35  66 W5        30.17R
HILL AFB       SUNNY     46  33  59 E21       30.17R
LOGAN          MOSUNNY   45  37  73 NW3       30.23S
OGDEN          SUNNY     51  36  56 W6        30.17R
SALT LAKE CITY PTSUNNY   52  38  58 W6        30.17R
TOOELE VALLEY  SUNNY     48  36  61 CALM      30.19R
WENDOVER       SUNNY     55  33  43 N14       30.18R
HEBER CITY     SUNNY     37  32  81 CALM      30.21S
WEST JORDAN    SUNNY     50  39  67 CALM      30.18R

$$

UTZ011>015-024>027-261700-

CENTRAL/NORTHEAST UTAH

CITY           SKY/WX    TMP DP  RH WIND       PRES   REMARKS
PROVO AIRPORT  MOSUNNY   49  37  63 SE3       30.18R
MOAB/CANYONLAN SUNNY     57  30  35 SE5       30.12R
DELTA          MOSUNNY   50  32  50 N7        30.16R
PRICE          SUNNY     54  25  32 CALM      30.17R
ROOSEVELT      SUNNY     46  37  71 E3        30.24R
VERNAL         SUNNY     52  33  48 VRB3      30.21R

$$

UTZ013>016-019>022-027-261700-

SOUTHERN UTAH

CITY           SKY/WX    TMP DP  RH WIND       PRES   REMARKS
BRYCE CANYON   MOSUNNY   42  29  59 NE3       30.18R
CEDAR CITY     PTSUNNY   45  33  63 CALM      30.12S
MILFORD        MOSUNNY   49  36  61 N14       30.14R
HANKSVILLE     SUNNY     52  30  43 N3        30.16S
BLANDING         N/A     54  24  32 CALM      30.19R

$$

REGIONAL REPORTS     COLORADO/ARIZONA

CITY           SKY/WX    TMP DP  RH WIND       PRES   REMARKS
CRAIG, CO      SUNNY     41  28  60 NE3       30.24S
GRAND JUNCTION SUNNY     53  31  42 SE9       30.15S
RIFLE, CO      CLOUDY    44  33  65 CALM      30.19S
MONTROSE, CO   SUNNY     48  28  46 CALM      30.19S
CORTEZ, CO     SUNNY     52  28  39 CALM      30.13R
PAGE, AZ       SUNNY     59  27  29 CALM      30.06R
GRAND CANYON   MOSUNNY   54  21  27 E16       30.10R
KINGMAN, AZ    PTSUNNY   64  31  28 NE8       29.95R
FLAGSTAFF, AZ  MOSUNNY   52  17  25 E12       30.10R

$$

REGIONAL REPORTS    NEVADA/IDAHO/WYOMING

CITY           SKY/WX    TMP DP  RH WIND       PRES   REMARKS
LAS VEGAS, NV  MOSUNNY   69  30  23 N14       29.94R
ELY, NY        PTSUNNY   39  30  70 VRB3      30.18R
ELKO, NV       SUNNY     46  34  62 CALM      30.18S
POCATELLO, ID  CLOUDY    46  36  68 CALM      30.23R
BURLEY, ID     SUNNY     46  37  71 CALM      30.21R
FORT BRIDGER,    N/A     41  33  73 N3        30.29R
EVANSTON, WY   SUNNY     39  32  76 N6        30.24R WCI  35
ROCK SPRINGS,  SUNNY     39  31  72 CALM      30.26R

$$




USA.gov is the U.S. government's official web portal to all federal, state and local government web resources and services.